Тианети

Грузия     42°06′42″N   44°58′04″E
темп.,
°C
ветер,
м/с
пор.,
м/с
влажн.,
%
обл.,
%
осадки,
мм/ч
давл.,
гПа
погр.,
м
11 апреля, вс
вс1101:00+10юв1187100 0.4 101716
04:00+9св1182100 0.8 101624
07:00+8всв117998 0.0 101627
10:00+15в3950100 0.0 10151374
13:00+14в51251100 0.0 10151605
16:00+12всв5866100 0.1 1015978
19:00+11ссв1273100 0.0 101585
22:00+10св1174100 0.0 101533
12 апреля, пн
пн1201:00+9в1179100 0.2 101648
04:00+9с118779 0.6 101650
07:00+8зсз1294100 0.6 101674
10:00+11з117839 0.9 1016450
13:00+16ююв14532 1.6 10141393
16:00+16вюв255088 3.7 10141760
19:00+11юз11772 2.8 101543
22:00+5з3398100 9.3 1020211
13 апреля, вт
вт1301:00+5зсз129691 3.1 1021189
04:00+7всв1398100 5.2 1020211
07:00+7всв2499100 3.3 1020245
10:00+8св3698100 5.9 1020514
13:00+9всв2484100 0.3 1020670
16:00+10всв2483100 0.3 1018554
19:00+9в2389100 0.2 1015106
22:00+8всв31197100 1.9 1015816
14 апреля, ср
ср1401:00+8всв2390100 0.6 1016109
04:00+7зсз1295100 1.5 101691
07:00+6зсз2394100 1.4 1017115
10:00+7зсз128499 1.5 1018542
13:00+7зюз2286100 0.4 1017261
16:00+11з236336 1.3 10151165
19:00+8зюз3969100 0.1 1016700
22:00+5зюз118565 0.1 101819
15 апреля, чт
чт1501:00+4зюз11910 0.0 101818
04:00+3з11890 0.0 101812
07:00+4з11780 0.0 101817
10:00+12з25385 0.0 1016767
13:00+15з483616 0.0 10141861
16:00+15з58415 0.0 10131725
19:00+13зюз495999 0.0 1014811
22:00+9юз1173100 0.0 101615